Weather History for KPLU - January, 2013

Change the Weather History Date:

Thursday, January 10, 2013

  Actual Average (KTCM) Record (KTCM)
Temperature  
Mean Temperature 32 °F -  
Max Temperature 37 °F 43 °F 55 °F (1999)
Min Temperature 28 °F 32 °F 12 °F (1993)
Degree Days  
Heating Degree Days 32    
Moisture  
Dew Point 32 °F    
Average Humidity 97    
Maximum Humidity 100    
Minimum Humidity 81    
Precipitation  
Precipitation 0.03 in - - ()
Sea Level Pressure  
Sea Level Pressure 30.05 in    
Wind  
Wind Speed 0 mph (West)    
Max Wind Speed 4 mph    
Max Gust Speed -    
Visibility 6 miles    
Events Fog , Rain , Snow    
Averages and records for this station are not official NWS values.
T = Trace of Precipitation, MM = Missing Value Source: NWS Daily Summary

Daily Weather History Graph

Daily Weather History Graph

Search for Another Location

Airport or City:

Trip Planner

Search our weather history database for the weather conditions in past years. The results will help you decide how hot, cold, wet, or windy it might be!

Date:

Astronomy

Jan. 10, 2013 Rise Set
Actual Time 7:53 AM PST 4:40 PM PST
Civil Twilight 7:18 AM PST 5:15 PM PST
Nautical Twilight 6:40 AM PST 5:53 PM PST
Astronomical Twilight 6:03 AM PST 6:30 PM PST
Moon 6:37 AM PST (1/10) 3:55 PM PST (1/10)
Length of Visible Light 9h 56m
Length of Day
8h 47m
Waning Crescent, 1% of the Moon is Illuminated
Jan 10
Waning Crescent
Jan 11
New
Jan 18
First Quarter
Jan 26
Full
Feb 3
Last Quarter

Hourly Weather History & Observations

Time (PST) Temp. Windchill Dew Point Humidity Pressure Visibility Wind Dir Wind Speed Gust Speed Precip Events Conditions
12:15 AM 32.0 °F - 32.0 °F 100% 29.95 in 10.0 mi Calm Calm - N/A   Clear
12:35 AM 32.0 °F - 32.0 °F 100% 29.95 in 10.0 mi Calm Calm - N/A   Clear
12:55 AM 32.0 °F - 32.0 °F 100% 29.95 in 10.0 mi Calm Calm - N/A   Clear
1:15 AM 32.0 °F - 32.0 °F 100% 29.95 in 10.0 mi Calm Calm - N/A   Partly Cloudy
1:35 AM 28.4 °F - 28.4 °F 100% 29.95 in 10.0 mi Calm Calm - N/A   Partly Cloudy
1:55 AM 28.4 °F - 28.4 °F 100% 29.96 in 10.0 mi Calm Calm - N/A   Clear
2:15 AM 28.4 °F - 28.4 °F 100% 29.96 in 10.0 mi Calm Calm - N/A   Clear
2:35 AM 30.2 °F - 30.2 °F 100% 29.97 in 10.0 mi Calm Calm - N/A   Scattered Clouds
2:55 AM 28.4 °F - 28.4 °F 100% 29.97 in 10.0 mi Calm Calm - N/A   Mostly Cloudy
3:35 AM 28.4 °F - 28.4 °F 100% 29.97 in 10.0 mi Calm Calm - N/A   Clear
3:55 AM 28.4 °F - 28.4 °F 100% 29.98 in 10.0 mi Calm Calm - N/A   Scattered Clouds
4:15 AM 30.2 °F - 30.2 °F 100% 29.98 in 10.0 mi Calm Calm - N/A   Mostly Cloudy
4:35 AM 30.2 °F - 30.2 °F 100% 29.98 in 10.0 mi Calm Calm - N/A   Mostly Cloudy
4:55 AM 30.2 °F - 30.2 °F 100% 29.99 in 10.0 mi Calm Calm - N/A   Mostly Cloudy
5:35 AM 32.0 °F - 32.0 °F 100% 29.99 in 10.0 mi Calm Calm - N/A   Overcast
5:55 AM 32.0 °F - 32.0 °F 100% 30.00 in 1.8 mi Calm Calm - N/A   Overcast
6:15 AM 32.0 °F - 32.0 °F 100% 30.00 in 0.2 mi Calm Calm - N/A Fog Light Freezing Fog
6:35 AM 32.0 °F - 32.0 °F 100% 30.01 in 0.2 mi Calm Calm - N/A Fog Fog
6:55 AM 32.0 °F - 32.0 °F 100% 30.02 in 0.2 mi Calm Calm - N/A Fog Fog
7:15 AM 32.0 °F - 32.0 °F 100% 30.03 in 0.2 mi Calm Calm - N/A Fog Fog
7:35 AM 32.0 °F - 32.0 °F 100% 30.03 in 0.5 mi Calm Calm - N/A Fog Fog
7:55 AM 32.0 °F - 32.0 °F 100% 30.04 in 0.5 mi Calm Calm - N/A Fog Fog
8:15 AM 32.0 °F - 32.0 °F 100% 30.05 in 0.8 mi Calm Calm - N/A   Overcast
8:35 AM 32.0 °F - 32.0 °F 100% 30.07 in 1.5 mi Calm Calm - N/A   Scattered Clouds
8:55 AM 32.0 °F - 32.0 °F 100% 30.07 in 2.0 mi Calm Calm - N/A   Mostly Cloudy
9:15 AM 32.0 °F - 32.0 °F 100% 30.07 in 1.5 mi Calm Calm - N/A   Overcast
10:15 AM 33.8 °F - 33.8 °F 100% 30.08 in 4.0 mi Calm Calm - N/A   Mostly Cloudy
10:35 AM 33.8 °F - 33.8 °F 100% 30.08 in 5.0 mi Calm Calm - N/A   Scattered Clouds
10:55 AM 33.8 °F - 33.8 °F 100% 30.08 in 9.0 mi Calm Calm - N/A   Partly Cloudy
11:15 AM 33.8 °F - 33.8 °F 100% 30.07 in 10.0 mi Calm Calm - N/A   Partly Cloudy
11:35 AM 35.6 °F - 33.8 °F 93% 30.07 in 10.0 mi Calm Calm - N/A   Scattered Clouds
11:55 AM 35.6 °F - 32.0 °F 87% 30.07 in 10.0 mi Calm Calm - N/A   Scattered Clouds
12:15 PM 35.6 °F - 32.0 °F 87% 30.07 in 10.0 mi Calm Calm - N/A   Partly Cloudy
12:35 PM 35.6 °F - 32.0 °F 87% 30.06 in 10.0 mi Calm Calm - N/A   Partly Cloudy
12:55 PM 37.4 °F 34.9 °F 32.0 °F 81% 30.05 in 10.0 mi West 3.5 mph - N/A   Scattered Clouds
1:15 PM 35.6 °F - 32.0 °F 87% 30.05 in 10.0 mi Calm Calm - N/A   Scattered Clouds
1:35 PM 35.6 °F - 32.0 °F 87% 30.06 in 10.0 mi Calm Calm - N/A   Scattered Clouds
1:55 PM 35.6 °F - 32.0 °F 87% 30.07 in 10.0 mi Calm Calm - N/A   Mostly Cloudy
2:15 PM 35.6 °F - 32.0 °F 87% 30.07 in 10.0 mi Calm Calm - N/A   Mostly Cloudy
2:35 PM 35.6 °F - 33.8 °F 93% 30.07 in 10.0 mi Calm Calm - N/A   Mostly Cloudy
2:55 PM 35.6 °F - 33.8 °F 93% 30.07 in 10.0 mi Calm Calm - N/A   Mostly Cloudy
3:15 PM 35.6 °F - 33.8 °F 93% 30.07 in 10.0 mi Calm Calm - N/A   Mostly Cloudy
3:35 PM 35.6 °F 32.8 °F 33.8 °F 93% 30.07 in 10.0 mi West 3.5 mph - N/A   Overcast
3:55 PM 35.6 °F - 32.0 °F 87% 30.08 in 10.0 mi Calm Calm - N/A   Mostly Cloudy
4:15 PM 35.6 °F 32.8 °F 33.8 °F 93% 30.08 in 9.0 mi West 3.5 mph - N/A   Scattered Clouds
4:35 PM 35.6 °F 32.8 °F 33.8 °F 93% 30.08 in 8.0 mi WSW 3.5 mph - N/A Rain Light Rain
4:55 PM 35.6 °F - 33.8 °F 93% 30.08 in 10.0 mi Calm Calm - N/A   Mostly Cloudy
5:15 PM 33.8 °F - 33.8 °F 100% 30.08 in 9.0 mi Calm Calm - N/A Rain Light Rain
5:35 PM 33.8 °F - 33.8 °F 100% 30.08 in 7.0 mi Calm Calm - N/A Rain Light Rain
5:55 PM 32.0 °F - 32.0 °F 100% 30.08 in 2.5 mi Calm Calm - N/A Snow Light Snow
6:15 PM 32.0 °F - 32.0 °F 100% 30.08 in 6.0 mi Calm Calm - N/A   Mostly Cloudy
6:35 PM 32.0 °F - 32.0 °F 100% 30.08 in 5.0 mi Calm Calm - N/A Snow Light Snow
6:55 PM 32.0 °F - 32.0 °F 100% 30.08 in 7.0 mi Calm Calm - N/A   Mostly Cloudy
7:15 PM 32.0 °F - 32.0 °F 100% 30.08 in 4.0 mi Calm Calm - N/A Rain Light Rain
7:35 PM 32.0 °F - 32.0 °F 100% 30.08 in 1.8 mi Calm Calm - N/A Snow Light Snow
7:55 PM 32.0 °F - 32.0 °F 100% 30.08 in 3.0 mi Calm Calm - 0.01 in Snow Light Snow
8:15 PM 32.0 °F - 32.0 °F 100% 30.08 in 3.0 mi Calm Calm - N/A   Mostly Cloudy
8:35 PM 32.0 °F - 32.0 °F 100% 30.09 in 1.2 mi Calm Calm - N/A Snow Light Snow
8:55 PM 32.0 °F - 32.0 °F 100% 30.09 in 1.8 mi Calm Calm - 0.01 in Snow Light Snow
9:15 PM 32.0 °F - 32.0 °F 100% 30.09 in 1.2 mi Calm Calm - 0.01 in Snow Light Snow
9:35 PM 32.0 °F - 32.0 °F 100% 30.09 in 2.5 mi Calm Calm - 0.01 in Snow Light Snow
9:55 PM 32.0 °F - 32.0 °F 100% 30.10 in 3.0 mi Calm Calm - 0.01 in   Mostly Cloudy
10:15 PM 32.0 °F - 32.0 °F 100% 30.10 in 2.5 mi Calm Calm - N/A   Mostly Cloudy
10:35 PM 32.0 °F - 32.0 °F 100% 30.10 in 2.5 mi Calm Calm - N/A   Mostly Cloudy
10:55 PM 32.0 °F - 32.0 °F 100% 30.10 in 2.5 mi Calm Calm - N/A   Mostly Cloudy
11:15 PM 32.0 °F - 32.0 °F 100% 30.11 in 2.0 mi Calm Calm - N/A   Mostly Cloudy
11:35 PM 32.0 °F - 32.0 °F 100% 30.11 in 2.5 mi Calm Calm - N/A   Mostly Cloudy
11:55 PM 32.0 °F - 32.0 °F 100% 30.11 in 2.5 mi Calm Calm - N/A   Mostly Cloudy